Погода в Познани

Польша     52°24′29″N   16°55′38″E
темп.,
°C
ветер,
м/с
пор.,
м/с
влажн.,
%
обл.,
%
осадки,
мм/ч
давл.,
гПа
погр.,
м
3 марта, ср
ср301:00+3ю11850 0.0 103322
04:00+2юз12860 0.0 103122
07:00+2юз12860 0.0 103022
10:00+7юз24680 0.0 1029254
13:00+11юз35540 0.0 1027455
16:00+11юз36560 0.0 1024498
19:00+7юз36710 0.0 1022124
22:00+6зюз48850 0.0 1020172
4 марта, чт
чт401:00+6зюз4118743 0.0 1019263
04:00+6з5129429 0.0 1016443
07:00+5з6119257 0.0 1016563
10:00+4зсз6885100 0.0 1015755
13:00+4зсз6881100 0.1 1015791
16:00+3зсз5877100 0.1 1014861
19:00+3сз4789100 0.1 1015531
22:00+1св61090100 0.2 1016492
5 марта, пт
пт501:000ссв4882100 0.2 1017639
04:00−2с378358 0.0 1018264
07:00−2с368133 0.0 1020245
10:00+2ссз465664 0.0 10211144
13:00+4сз454146 0.1 10222024
16:00+4сз564495 0.2 10231819
19:000ссз5106079 0.3 1025413
22:00−1ссз48740 0.0 1028351
6 марта, сб
сб601:00−2ссз47760 0.0 1030324
04:00−2сз24740 0.0 1030162
07:00−2з24720 0.0 1032130
10:00+2зсз35500 0.0 1032820
13:00+4з463915 0.0 10321654
16:00+4з58420 0.0 10301494
19:000зюз410490 0.0 1029320
22:000зюз511498 0.0 1028371
7 марта, вс
вс701:000зюз614527 0.0 1027499
04:00−1з613574 0.0 1024540
07:00−1з612722 0.0 1024653
10:00+1з7107181 0.0 1023976
13:00+2зсз796791 0.0 10211049
16:00+2зсз696798 0.0 10191071
19:00+1зсз587299 0.0 1018779
22:00+1з5971100 0.0 1018786